Home   Weather   Huntingdon   Past weeks
Flag for United Kingdom

Past Weather in Huntingdon, England, United Kingdom — Yesterday and Last 2 Weeks

Now
37 °F

Chilly.


Feels Like: 30 °F
Forecast: 43 / 35 °F
Wind: 12 mph from Northwest

Location: Bedford

Current Time: Feb 27, 2020 at 12:10:31 pm

Latest Report: Feb 27, 2020 at 11:00 am


Visibility: 25 mi

Pressure: 29.50 "Hg

Humidity: 93%

Dew Point: 35 °F

Location of HuntingdonLocation

Past Weather in Huntingdon — Graph

°F

Huntingdon Temperature Yesterday

Maximum temperature yesterday: 45 °F (at 3:00 pm)
Minimum temperature yesterday: 34 °F (at 6:00 am)
Average temperature yesterday: 38 °F

High & Low Weather Summary for the Past Weeks

 TemperatureHumidityPressure
High56 °F (Feb 23, 11:00 am)100% (Feb 14, 8:00 am)30.22 "Hg (Feb 14, 8:00 am)
Low32 °F (Feb 27, 8:00 am)42% (Feb 23, 4:00 pm)29.12 "Hg (Feb 16, 6:00 am)
Average44 °F82%29.77 "Hg
* Reported Feb 12 11:00 am — Feb 27 11:00 am, Huntingdon. Weather by CustomWeather, © 2020

Note: Actual official high and low records may vary slightly from our data, if they occured in-between our weather recording intervals... More about our weather records

Huntingdon Weather History for the Previous 24 Hours

Scroll right to see more
 ConditionsComfort  
Time TempWeatherWind HumidityBarometerVisibility
11:00 am
Thu, Feb 27
37 °FChilly.12 mph93%29.50 "Hg25 mi
10:00 am34 °FLight rain. Cloudy.8 mph99%29.47 "Hg6 mi
9:00 am33 °FSnow. Cloudy.5 mph100%29.47 "Hg2 mi
8:00 am32 °FSnow. Cloudy.3 mph98%29.44 "Hg1 mi
7:00 am34 °FSnow. Cloudy.3 mph97%29.44 "Hg2 mi
6:00 am35 °FRain. Overcast.5 mph97%29.44 "Hg4 mi
5:00 am36 °FLight freezing rain. Overcast.5 mph94%29.47 "Hg8 mi
4:00 am37 °FLight rain. Overcast.7 mph90%29.50 "Hg11 mi
3:00 am37 °FChilly.7 mph85%29.55 "Hg25 mi
2:00 am36 °FChilly.8 mph85%29.59 "Hg28 mi
1:00 am37 °FChilly.9 mph85%29.62 "Hg22 mi
12:00 am36 °FChilly.8 mph87%29.65 "Hg11 mi
11:00 pm
Wed, Feb 26
36 °FChilly.8 mph85%29.68 "Hg31 mi
10:00 pm36 °FSmoke.5 mph83%29.71 "Hg2 mi
9:00 pm36 °FChilly.3 mph81%29.73 "Hg31 mi
8:00 pm38 °FChilly.10 mph77%29.74 "Hg31 mi
7:00 pm38 °FChilly.6 mph71%29.75 "Hg31 mi
6:00 pm40 °FQuite cool.6 mph65%29.73 "Hg22 mi
5:00 pm43 °FQuite cool.16 mph56%29.72 "Hg31 mi
4:00 pm44 °FQuite cool.17 mph62%29.71 "Hg31 mi
3:00 pm45 °FQuite cool.16 mph61%29.68 "Hg22 mi
2:00 pm44 °FQuite cool.21 mph67%29.67 "Hg31 mi
1:00 pm42 °FQuite cool.16 mph70%29.67 "Hg31 mi
12:00 pm42 °FQuite cool.18 mph74%29.65 "Hg31 mi
Weather by CustomWeather, © 2020

See weather overview

Advertising